Погода в Людерице

Намибия     26°38′44″S   15°09′37″E
темп.,
°C
ветер,
м/с
пор.,
м/с
влажн.,
%
обл.,
%
осадки,
мм/ч
давл.,
гПа
погр.,
м
16 сентября, чт
чт1623:00+11ююв1016640 0.0 1022532
02:00+10юв916630 0.0 1022410
05:00+9юв713680 0.0 1021262
08:00+10юв715610 0.0 1022441
11:00+21ююв1011195 0.0 10201204
14:00+25ю1213170 0.0 10151143
17:00+25ююв1313185 0.0 10131092
20:00+18ююв1217367 0.0 1015312
17 сентября, пт
пт1723:00+18ююв711305 0.0 1016174
02:00+16ююв44305 0.0 101438
05:00+16юв34245 0.0 101332
08:00+18всв47215 0.0 1013115
11:00+29св9995 0.0 10131290
14:00+19сз55360 0.0 1012270
17:00+19сз65370 0.0 1011297
20:00+16ссз34450 0.0 101289
18 сентября, сб
сб1823:00+15ссз45560 0.0 101370
02:00+12ссз47770 0.0 1012115
05:00+12ссз816800 0.0 1012350
08:00+13ссз9168021 0.0 1014600
11:00+17сз1013620 0.0 1015769
14:00+17сз1012631 0.0 1014775
17:00+16сз79674 0.0 1014636
20:00+13ссз47820 0.0 1017292
19 сентября, вс
вс1923:00+12с34870 0.0 101877
02:00+12с33880 0.0 101725
05:00+11ссз22890 0.0 101710
08:00+12з01850 0.0 101962
11:00+17юз11540 0.0 1018617
14:00+19юз64510 0.0 1017690
17:00+17ююз67640 0.0 1016591
20:00+14ю59840 0.0 1018412
20 сентября, пн
пн2023:00+13ю48860 0.0 1019231
02:00+12ююв48910 0.0 1018181
05:00+11ююв59930 0.0 1018180
08:00+13ююв611750 0.0 1020504
11:00+21ю1011350 0.0 1019978
14:00+24ю1212240 0.0 10161032
17:00+23ю1314250 0.0 1014906
20:00+18ююв1016420 0.0 1015409